User: anonymous   Login
Location: Unspecified
(0.0000°N, 0.0000°E)
Time: 17:31:18
(UTC+00:00)
Language:

PAYLOAD E - Orbit

View from above orbital plane
View from above orbital plane
View from above satellite
View from above satellite

Ground track
Ground track

The orbit data is extracted from the following two-line orbital elements,

1 27059U 01058E   18050.17276684 -.00000012  00000-0 -12487-3 0  9992
2 27059  82.5448 359.2919 0000844 356.0329   4.0754 12.61481356743492
Epoch (UTC): 19 February 2018 04:08:47
Eccentricity: 0.0000844
inclination: 82.5448°
perigee height: 1416 km
apogee height: 1417 km
right ascension of ascending node: 359.2919°
argument of perigee: 356.0329°
revolutions per day: 12.61481356
mean anomaly at epoch: 4.0754°
orbit number at epoch: 74349

The dashed part of the orbit path shows where the satellite is in the earth's shadow,  

DLR